Theta_e
307 307 307 307 307 307 306 307 307 307 306 306 306 306 306 307 307 307 307 307 308 308 308 308 307 306 305 304 304 303 303 302 303 303 303 302 301 301 301 301 301 300 300 300 300 299 299 298 298 297 297 296 296 295 295 295 294 295 294 294 294 294 294 294 294 294 294 294 294
308 308 308 308 308 307 306 306 307 307 306 306 306 306 307 307 307 307 307 308 308 308 308 307 306 305 304 304 304 303 303 302 302 302 302 302 301 301 301 301 301 301 301 301 300 300 299 298 298 297 296 296 295 295 295 295 295 294 294 294 294 294 294 294 294 294 294 293 293
308 307 307 307 306 306 306 305 305 305 306 306 306 307 307 307 307 307 308 308 309 308 308 307 306 305 304 304 304 303 303 303 302 302 302 301 301 301 301 301 301 301 301 301 300 300 299 298 298 297 297 296 295 295 294 294 295 295 294 294 294 295 295 295 294 294 294 293 293
307 307 306 306 305 305 305 305 305 305 306 306 307 307 307 307 308 308 308 309 308 308 307 307 306 306 305 304 304 304 304 304 303 303 302 302 302 301 301 302 302 302 301 301 300 299 299 299 298 297 297 296 295 295 295 295 295 295 295 294 295 295 295 295 294 294 294 293 293
306 306 306 306 305 305 305 305 305 306 306 306 306 307 307 308 308 308 308 308 308 307 307 307 306 306 305 305 304 304 304 305 305 304 303 303 302 302 302 302 302 301 301 300 300 299 299 298 298 297 296 296 295 295 295 295 295 295 295 295 295 295 294 294 294 294 293 293 292
306 306 306 305 304 304 304 305 306 306 306 306 306 307 307 307 308 308 308 307 307 307 307 307 306 306 306 305 305 304 304 304 304 304 303 303 303 303 302 302 301 301 300 300 299 299 299 299 298 298 297 296 296 295 295 295 295 295 295 294 294 294 293 293 293 293 293 293 292
305 305 305 305 304 304 305 304 305 306 306 306 306 306 307 307 307 307 307 307 307 308 308 308 306 306 305 305 305 304 304 304 304 304 303 303 303 303 302 301 301 300 299 299 299 299 299 299 298 298 298 297 296 295 295 295 295 294 294 293 293 293 292 291 292 292 292 292 292
305 305 305 305 305 305 304 304 305 306 306 306 306 306 306 307 307 307 307 308 307 307 307 307 306 305 305 305 304 304 304 304 304 304 303 303 303 302 302 301 301 300 299 299 299 298 298 299 298 297 297 296 296 295 295 294 294 294 293 292 292 291 291 291 291 291 292 292 291
305 305 306 306 306 305 305 305 305 306 306 306 306 306 306 307 307 307 307 307 307 307 307 306 306 305 305 305 304 304 304 304 303 303 303 303 302 302 301 301 300 300 299 299 298 298 298 298 297 297 296 296 295 295 294 294 293 293 292 292 291 291 290 290 290 290 291 291 290
305 305 305 305 305 306 305 305 305 306 306 306 306 307 308 308 307 307 307 307 307 307 306 306 306 305 305 304 304 304 304 304 303 303 303 303 302 302 301 300 300 299 299 299 298 298 298 297 296 296 296 295 294 294 293 293 293 292 292 292 291 290 290 289 289 289 290 290 290
304 305 305 305 305 306 306 305 306 306 306 306 306 307 307 307 307 307 307 307 306 306 306 306 305 305 304 304 304 304 304 304 303 303 303 302 302 301 301 300 300 299 299 298 298 297 297 296 295 295 294 294 294 293 293 292 292 291 291 290 290 290 289 288 288 288 288 289 289
305 305 305 305 305 305 305 305 305 306 306 306 306 306 306 306 306 306 306 306 306 306 306 306 305 305 304 304 304 304 304 303 303 303 302 302 301 301 301 300 300 299 299 298 298 297 296 295 294 294 294 293 293 293 292 292 291 290 290 289 289 289 288 287 287 287 287 288 288
305 305 305 305 305 305 305 305 305 305 306 306 306 306 306 306 306 306 306 305 305 305 305 305 305 305 305 304 304 304 303 303 303 302 302 301 301 301 301 300 300 299 298 298 297 296 295 294 294 294 293 293 293 292 292 291 290 290 290 289 289 288 287 287 287 287 287 288 288
305 305 305 305 305 305 305 305 305 305 305 305 305 306 306 306 306 306 305 305 305 305 305 305 305 305 305 304 304 304 303 303 302 302 301 301 300 300 300 300 300 299 298 297 296 295 294 294 294 293 293 293 292 292 291 290 290 290 289 289 288 287 286 286 286 287 287 288 288
304 304 305 305 305 304 304 305 305 305 305 305 305 305 305 305 306 306 305 305 304 304 304 304 304 304 304 304 304 303 303 302 302 301 301 301 300 299 299 299 299 298 298 297 295 295 294 294 294 294 293 293 292 291 290 289 289 289 289 288 287 286 286 285 286 286 287 288 288
304 304 304 304 304 304 304 304 305 305 305 305 305 305 305 305 305 305 305 304 304 304 304 304 304 304 304 304 304 303 302 302 301 301 300 300 299 299 298 298 298 298 297 296 295 295 295 295 295 295 294 293 291 290 290 289 289 288 287 286 286 285 286 286 286 286 287 288 288
304 304 304 304 304 304 304 304 304 304 304 304 304 305 305 305 305 305 305 304 304 304 304 304 304 304 303 304 303 303 302 301 301 300 300 300 300 299 298 298 297 297 297 296 295 295 295 295 295 294 293 292 291 290 289 288 287 286 285 284 284 284 285 287 286 286 286 288 288
304 304 304 304 304 304 304 304 304 304 304 304 304 304 304 304 304 304 305 304 304 303 303 303 303 303 303 302 302 302 302 301 300 300 300 300 300 299 298 297 296 296 296 296 296 296 295 295 294 293 292 291 290 289 288 287 286 284 284 283 283 283 283 284 284 284 285 286 287
304 304 304 303 304 304 304 304 304 304 304 304 304 304 304 304 304 304 304 304 303 303 303 302 302 302 302 302 302 302 302 301 300 300 300 300 299 299 298 297 295 296 296 296 296 295 294 293 292 291 290 289 288 287 286 285 284 284 283 283 282 282 281 281 281 282 283 284 284
304 304 303 303 303 304 304 304 304 304 303 303 303 303 304 304 303 303 303 303 303 303 302 302 302 302 301 301 301 301 301 301 300 300 300 299 298 298 297 297 296 296 296 296 295 294 292 291 290 289 288 287 286 285 284 284 283 282 282 281 281 281 280 280 280 280 281 281 282
304 303 303 303 303 303 303 303 303 303 302 303 303 303 303 303 303 303 303 302 302 302 302 302 301 301 301 301 301 300 300 301 300 299 299 298 298 297 297 297 296 296 296 295 293 291 290 289 288 287 287 286 285 284 284 283 282 282 281 281 280 280 280 279 280 280 280 280 281
303 303 303 303 303 303 303 304 303 302 302 302 303 303 303 303 302 302 302 302 302 301 301 301 301 301 301 300 300 300 300 300 300 299 298 298 297 297 297 296 296 295 294 293 291 289 288 287 286 285 285 285 284 284 284 284 283 282 281 281 281 280 280 280 279 279 280 280 280
303 303 303 303 303 303 304 303 303 302 302 302 302 302 302 302 302 302 302 302 302 301 301 301 301 300 300 300 299 299 299 299 298 298 297 297 296 296 296 295 295 294 292 291 289 288 286 285 285 284 284 283 283 283 284 284 283 283 282 282 282 281 281 280 279 279 279 279 279
303 303 303 303 303 303 303 303 302 302 302 302 302 302 302 302 302 301 301 301 301 301 301 301 300 300 299 299 299 298 298 298 297 296 295 295 294 294 294 293 292 291 289 288 290 289 288 286 284 284 283 283 282 282 282 283 283 283 283 283 283 282 281 281 280 280 279 279 279
303 303 303 303 303 303 302 302 302 302 302 302 302 302 302 301 301 301 301 301 301 300 300 300 300 299 298 298 297 297 297 297 296 295 294 293 293 292 291 290 289 288 289 293 298 299 297 293 289 285 284 283 283 282 282 282 283 283 283 284 284 284 283 283 282 281 280 279 279
302 302 303 302 302 302 302 302 302 302 301 301 301 301 301 301 301 301 301 300 300 300 300 300 300 299 299 297 296 295 295 295 295 294 293 292 292 290 289 287 287 287 290 298 303 303 302 301 297 291 286 283 283 283 283 283 283 283 284 284 285 285 285 285 284 283 282 280 280
302 302 302 302 302 302 302 302 302 302 301 301 301 301 301 301 301 300 300 300 300 300 300 300 300 299 299 297 295 294 293 293 292 292 291 290 289 288 287 286 286 287 291 301 303 304 304 303 301 296 290 284 284 284 284 283 283 283 284 284 284 285 285 285 285 286 286 283 281
302 301 301 301 301 301 301 301 301 301 301 301 301 301 301 301 300 300 300 300 300 300 300 300 300 299 298 296 294 293 292 290 289 288 287 286 286 286 285 285 284 287 293 302 304 304 304 304 303 300 295 289 285 284 284 283 284 283 283 283 283 283 283 283 283 285 285 284 283
301 301 301 301 301 301 301 301 301 301 301 301 301 301 301 300 300 300 300 299 300 300 299 299 299 297 296 294 292 291 289 287 286 285 284 284 284 283 283 283 284 289 297 304 304 304 304 305 304 302 299 294 288 285 284 285 284 283 283 282 281 281 281 281 281 282 282 281 282
301 301 301 301 300 300 300 300 300 301 301 301 301 301 300 300 300 300 299 299 299 299 299 297 297 296 294 293 291 288 286 284 284 284 284 284 284 284 284 287 286 289 295 304 304 304 304 305 305 303 301 298 291 286 284 283 283 283 283 281 280 280 281 280 280 280 280 280 282
300 300 300 300 300 300 300 300 300 300 300 301 301 300 300 300 299 299 299 299 299 299 298 296 296 295 293 292 288 285 284 283 283 284 284 285 288 287 285 284 282 286 294 304 304 304 304 304 305 304 302 299 293 287 283 283 282 282 281 281 280 280 280 280 280 280 280 280 282
300 300 300 300 300 300 300 300 300 300 300 300 300 300 300 299 299 300 300 299 298 298 297 296 295 293 292 289 286 284 283 283 283 283 283 284 284 283 282 282 282 286 293 303 304 305 304 304 304 304 303 301 294 287 282 282 281 280 280 280 280 279 279 280 279 279 279 280 281
300 299 299 299 299 299 300 300 300 300 300 300 300 300 299 300 300 299 299 299 297 297 296 295 294 293 290 286 285 284 284 284 285 286 287 285 283 283 283 284 283 287 296 303 305 305 305 304 304 304 304 302 293 285 281 281 280 279 279 279 278 278 278 278 278 278 278 278 278
299 299 299 299 299 299 299 299 299 300 300 299 299 299 299 300 299 299 299 298 297 296 295 295 293 290 287 285 284 284 285 286 284 282 281 281 281 282 284 283 282 288 298 304 305 305 305 305 305 305 304 301 291 284 281 281 280 280 279 279 278 278 278 278 278 277 277 277 277
299 299 298 298 299 299 299 299 299 299 299 299 299 299 299 299 299 299 299 298 297 296 294 292 290 287 285 283 283 285 285 285 281 279 279 279 281 283 285 285 284 290 299 305 305 305 306 305 305 305 303 298 288 283 282 282 281 281 280 280 280 280 279 278 278 277 277 277 277
299 298 298 298 298 299 299 299 299 299 299 299 299 299 299 299 299 299 299 299 297 295 294 291 290 288 286 284 284 286 286 282 281 279 279 280 281 283 284 284 285 290 298 305 305 306 306 306 306 305 301 293 285 282 282 282 281 281 281 281 281 281 280 279 279 278 278 277 277
299 298 298 298 298 298 298 299 299 298 298 298 298 298 298 298 299 299 299 299 297 294 293 291 289 287 286 284 284 284 283 281 281 281 282 284 283 283 283 284 284 288 295 304 305 306 307 307 306 303 298 289 284 282 282 282 281 281 281 281 280 280 279 279 279 279 279 278 279
298 298 298 298 298 298 298 298 298 298 298 298 298 298 298 298 298 299 299 299 296 294 292 290 288 286 285 284 283 282 281 281 283 283 282 283 283 283 284 285 284 287 292 301 305 307 307 307 306 303 297 288 284 283 283 283 282 282 283 282 281 280 279 278 278 279 280 281 286
298 298 298 298 298 298 298 298 298 298 298 297 297 297 298 298 298 299 300 299 295 292 290 288 287 285 284 285 283 282 281 281 283 284 283 281 282 285 287 285 285 287 291 299 304 306 307 307 306 303 298 290 286 284 284 283 283 283 282 282 282 281 280 278 278 279 280 282 292
298 298 298 297 298 298 298 298 298 298 297 297 297 297 297 297 298 299 299 298 293 290 289 287 286 285 286 289 285 283 282 281 282 283 284 283 285 290 293 287 285 286 290 297 303 306 307 307 306 304 300 291 286 285 285 284 284 283 282 281 282 282 282 280 279 279 280 281 288
298 298 298 297 297 297 297 298 297 297 297 297 296 297 297 298 298 298 298 296 294 291 289 287 285 285 287 291 286 283 282 282 282 282 283 286 287 292 295 289 285 285 287 292 300 305 307 307 306 304 300 292 286 285 286 285 285 285 284 282 281 282 283 282 281 281 281 280 281
Wind_Speed
4 4 4 3 3 3 3 3 3 3 3 2 3 2 2 3 3 3 3 3 3 4 5 5 5 5 6 7 7 7 7 7 7 8 8 8 7 7 8 8 8 8 9 9 8 7 6 6 6 5 5 5 5 5 5 4 5 6 6 6 5 5 6 7 6 6 6 5 4
4 4 4 4 4 3 3 3 3 3 3 2 2 3 3 3 3 3 3 3 4 4 5 5 6 6 7 7 7 7 8 8 8 8 8 8 7 7 7 7 8 8 9 9 7 6 5 6 6 6 5 4 5 5 5 5 5 6 7 7 5 5 5 6 5 5 5 4 4
4 4 4 4 3 3 3 3 3 3 3 3 3 3 3 3 3 3 3 4 5 5 5 5 6 7 7 7 7 7 7 8 8 8 8 7 7 7 7 7 8 9 9 8 7 5 5 6 6 6 5 4 4 5 4 4 4 5 6 6 4 4 4 4 4 4 4 4 5
4 4 4 4 4 4 3 3 3 3 3 3 3 3 3 3 3 3 4 5 5 6 5 6 6 6 6 7 7 7 7 8 8 8 8 7 7 7 8 9 9 9 8 7 6 6 6 6 5 5 4 4 4 4 3 3 4 4 5 4 4 4 5 4 4 4 4 4 4
4 4 3 4 4 4 4 3 3 3 3 3 3 3 3 3 3 3 4 5 5 5 6 6 6 6 6 7 8 8 8 9 9 8 7 7 7 8 8 9 8 7 6 6 6 6 6 6 5 4 4 4 4 3 3 4 5 6 5 4 4 4 4 4 4 4 4 4 3
4 4 4 4 4 4 3 3 4 4 3 3 4 4 4 3 3 4 4 5 5 6 7 8 7 7 7 8 8 8 8 7 7 7 7 7 7 8 8 8 7 6 5 5 5 5 5 5 4 4 3 3 3 4 5 6 7 7 6 5 4 4 4 4 3 3 3 4 3
4 4 4 4 4 4 4 3 3 3 3 4 5 5 5 4 5 5 6 6 6 6 7 7 7 7 7 8 8 7 7 7 6 6 7 7 7 7 7 7 6 5 5 4 4 4 4 4 4 4 4 4 4 5 6 7 7 6 6 5 4 4 4 3 3 3 3 5 5
4 4 5 4 4 4 4 4 4 3 4 4 5 6 6 6 6 6 6 6 6 6 6 6 7 7 8 8 8 7 7 7 6 6 6 6 7 7 7 6 6 5 4 4 4 4 4 4 4 4 4 4 4 5 6 7 7 7 7 5 4 4 3 3 3 3 4 6 6
4 4 5 5 4 4 4 4 4 4 4 5 5 6 6 7 7 7 6 6 6 6 6 6 7 8 8 8 8 7 7 7 7 6 6 6 7 6 6 6 5 5 4 4 4 5 5 5 4 4 4 4 4 5 6 7 8 8 7 5 4 4 4 4 4 4 4 6 6
4 5 5 5 5 4 4 4 4 5 5 5 6 6 7 7 7 6 5 5 6 6 6 7 8 8 8 8 8 7 6 6 6 6 6 6 6 6 6 5 5 5 4 4 5 5 6 5 5 5 5 5 5 6 6 7 8 8 6 4 4 4 4 4 4 4 4 5 6
5 5 5 5 5 5 5 4 4 4 5 5 5 6 6 7 6 6 6 6 6 7 7 7 8 8 8 8 7 7 6 6 6 6 6 6 6 6 6 5 5 5 5 5 4 4 5 5 6 6 6 5 6 6 7 7 8 7 6 4 5 5 5 5 5 4 4 4 5
5 5 5 5 5 5 5 4 4 4 4 5 6 6 6 6 6 6 7 7 7 7 7 7 7 8 8 7 7 6 6 6 6 6 6 6 6 6 6 6 6 6 6 5 4 4 5 5 7 7 7 6 5 5 6 7 7 7 6 5 5 5 5 5 4 3 3 4 5
5 5 5 5 5 5 5 4 3 4 4 5 5 5 5 5 6 7 7 8 7 7 6 6 7 7 7 7 6 6 6 5 6 6 6 6 6 6 6 6 6 6 6 5 5 5 5 6 7 7 7 6 5 5 5 6 6 6 6 6 6 5 5 4 3 3 3 4 5
5 5 5 5 5 5 4 4 3 4 4 5 5 5 5 5 6 6 7 7 7 6 6 6 6 6 6 7 6 6 6 5 6 6 6 6 6 6 6 6 6 6 5 5 5 6 6 6 7 7 7 7 6 5 5 6 6 6 6 6 5 5 3 3 2 2 3 5 4
6 5 5 5 5 4 4 3 3 4 5 6 5 5 5 5 5 6 6 7 7 6 6 6 5 5 6 6 6 6 6 5 6 6 7 6 6 6 6 6 6 6 6 6 6 6 6 6 6 6 6 6 6 6 5 5 5 5 5 5 5 4 3 2 2 2 3 4 4
6 6 5 5 5 4 4 3 3 4 5 5 5 5 5 4 5 5 6 6 6 6 6 6 6 6 6 6 6 6 5 5 6 6 7 7 6 6 6 6 6 6 6 6 6 6 6 6 6 6 6 6 6 5 5 5 5 5 5 5 4 3 2 2 2 3 3 4 4
6 6 6 6 5 4 4 3 4 4 5 6 6 5 5 4 4 5 6 6 6 6 6 6 6 6 5 5 5 5 5 5 6 6 6 6 6 6 6 5 5 6 6 7 7 6 6 6 5 6 6 6 6 5 5 5 5 5 5 4 3 2 2 2 2 2 3 4 4
6 6 6 6 5 5 4 4 5 5 6 6 6 5 5 4 5 5 5 6 6 7 7 7 6 6 5 5 4 4 4 5 6 6 6 6 6 6 6 6 5 6 6 6 7 7 6 6 6 6 6 6 5 5 5 5 5 5 4 4 3 2 2 2 2 2 3 3 3
7 7 7 6 5 5 5 5 6 6 6 6 6 6 5 5 5 5 5 6 6 7 7 7 6 6 5 5 5 5 5 5 6 6 6 6 6 6 6 6 6 6 6 6 6 6 6 6 6 6 6 6 5 5 5 5 5 4 4 3 3 2 2 2 2 2 3 3 3
7 7 7 6 6 5 5 5 6 6 6 6 6 6 6 5 5 6 6 6 6 6 7 7 7 6 6 6 6 6 5 5 6 6 6 6 6 6 6 6 6 6 6 6 6 6 6 6 6 6 6 6 6 6 5 5 5 4 4 3 3 3 2 2 2 3 3 2 2
7 7 7 6 5 5 5 6 6 6 6 6 6 6 6 5 6 6 6 6 6 6 7 7 7 7 6 6 7 6 6 5 5 6 6 6 6 6 6 6 6 6 6 6 6 6 6 6 6 5 5 6 6 5 5 5 4 4 3 3 3 3 3 3 3 3 3 2 2
7 7 7 6 6 5 5 6 6 6 6 7 7 6 6 6 6 6 6 6 6 6 6 6 6 6 6 6 6 6 6 5 5 6 6 6 6 6 6 6 6 6 6 6 5 6 6 5 5 5 5 5 5 5 5 5 4 4 3 3 3 3 3 4 3 3 3 2 2
8 7 7 6 6 6 6 7 7 7 7 7 7 6 6 6 6 6 6 6 6 6 6 6 6 6 6 6 6 6 6 6 6 6 6 6 6 6 6 5 6 6 5 5 5 5 5 5 4 4 4 4 4 4 4 4 4 4 4 3 3 3 4 4 4 3 3 2 2
8 7 7 6 6 6 6 7 7 7 7 7 7 7 7 7 7 7 7 7 6 6 6 5 5 6 6 6 6 6 7 7 7 6 6 6 6 6 5 5 5 5 4 4 5 5 5 4 4 4 4 4 4 4 4 4 4 4 4 4 3 3 3 3 3 3 3 2 2
8 8 7 6 6 6 6 7 7 7 7 7 7 7 7 7 7 7 7 7 7 6 6 6 6 6 6 6 6 6 6 6 7 7 7 6 6 5 5 4 3 3 3 4 7 8 8 6 5 4 4 3 4 4 3 3 3 4 4 4 4 3 3 3 3 3 3 2 2
8 8 7 7 7 7 7 7 7 7 7 7 7 7 7 7 7 7 7 7 7 6 6 6 6 6 6 6 6 6 5 5 6 6 6 6 6 5 4 3 2 2 2 5 8 9 9 8 7 6 5 4 4 4 4 3 3 3 3 4 4 4 3 3 3 3 2 2 2
9 8 8 7 7 7 7 7 7 7 7 7 7 7 7 7 7 7 7 7 6 6 6 6 6 6 7 6 6 6 6 4 5 6 6 6 5 4 3 2 1 1 2 6 9 9 9 8 9 8 7 5 5 4 4 3 3 3 3 3 3 3 3 3 2 2 2 2 2
9 8 8 7 7 7 7 7 7 8 8 7 7 7 7 7 7 7 7 7 6 6 5 5 5 5 5 5 6 6 6 5 5 5 5 5 5 4 3 2 1 1 3 6 9 9 9 9 9 9 9 7 5 4 4 4 4 3 3 3 3 3 3 3 2 1 1 1 2
9 9 8 8 8 7 7 7 8 8 8 7 7 7 7 7 7 7 7 7 6 6 5 4 4 4 4 5 5 5 5 5 4 4 4 4 4 3 2 1 1 2 4 7 8 9 9 9 10 10 10 9 6 4 4 4 4 3 3 2 2 2 2 2 2 1 1 1 2
9 9 9 8 8 8 8 8 8 8 7 7 7 7 7 7 7 7 7 7 6 5 5 4 4 4 5 5 5 4 4 4 4 4 4 5 4 2 2 1 1 2 3 6 8 10 10 10 10 11 11 10 7 5 4 4 3 3 3 2 2 2 2 2 2 1 1 1 1
10 9 9 8 8 8 8 8 8 7 7 7 7 7 7 7 7 7 7 6 6 5 5 4 5 5 5 5 4 4 4 4 3 4 4 5 4 3 2 1 1 3 4 6 8 10 11 11 11 11 11 11 8 5 4 4 3 3 3 2 2 2 2 2 2 1 1 1 1
10 10 9 8 8 8 9 9 8 8 7 7 7 7 7 7 7 7 6 6 6 6 6 5 6 6 5 4 4 4 4 4 4 4 4 4 3 3 2 1 2 3 4 6 8 11 12 11 12 12 12 11 8 5 4 4 3 3 3 3 2 2 2 1 1 1 1 1 1
10 10 9 9 8 9 9 9 9 8 8 7 7 7 7 7 6 6 6 6 6 6 6 6 6 6 5 4 4 4 4 4 4 4 4 3 3 2 2 1 2 3 4 6 8 11 12 12 12 12 12 11 8 5 4 4 3 3 3 3 2 2 2 2 1 1 1 1 1
11 10 10 9 9 9 9 9 9 9 8 8 7 7 7 7 7 7 7 6 6 5 5 5 5 4 4 4 4 4 4 4 3 3 3 3 3 2 2 2 2 3 5 6 8 11 12 12 12 13 12 11 7 5 4 4 3 3 3 3 2 2 2 1 1 1 1 1 1
11 11 10 10 9 9 9 10 9 9 9 8 7 7 7 6 7 7 7 7 6 5 4 3 3 3 3 3 3 3 4 4 3 3 3 3 3 3 2 2 2 3 5 7 9 11 12 12 13 13 12 9 6 5 5 5 4 3 3 3 2 2 2 1 1 1 1 1 1
12 11 11 10 9 9 10 10 10 10 9 9 8 7 7 6 6 6 7 8 7 6 5 4 3 3 3 2 2 3 3 4 3 3 3 3 3 3 3 2 2 4 5 6 10 12 12 12 13 13 11 8 5 4 4 4 4 3 3 3 2 2 1 1 1 1 1 1 1
11 11 11 11 10 10 10 10 10 10 10 9 8 8 7 7 6 6 6 8 7 6 5 4 4 4 3 3 3 2 2 3 3 3 3 3 3 3 3 2 2 3 4 4 8 12 13 13 14 13 11 7 5 4 4 4 3 3 3 3 2 1 1 1 1 1 0 0 1
11 11 11 11 11 11 10 10 10 11 10 9 8 7 7 6 6 6 6 7 6 6 5 4 4 4 4 4 3 3 2 2 3 3 3 3 3 3 3 3 2 3 4 4 6 11 13 13 14 13 10 6 5 5 4 3 3 2 2 2 1 1 1 1 1 1 1 1 2
12 11 11 12 11 11 11 11 11 11 10 10 8 7 7 6 5 5 6 6 5 5 5 4 4 3 4 4 4 3 2 2 2 3 3 3 3 4 4 3 2 2 3 6 6 10 14 14 14 13 11 7 6 5 4 4 3 3 2 1 1 1 1 1 1 1 1 2 3
12 12 11 11 11 11 11 11 11 10 10 9 9 8 7 7 6 5 5 4 4 4 4 4 3 3 4 5 5 4 3 1 1 1 2 2 3 4 4 3 2 2 3 6 5 9 14 14 14 14 11 7 5 5 4 4 4 3 2 1 0 0 1 1 1 1 1 2 3
12 12 11 11 11 11 11 11 11 10 9 9 9 8 8 7 6 5 4 4 4 4 4 3 3 3 4 5 5 4 4 2 1 1 1 1 2 3 3 3 2 2 3 5 3 7 12 14 14 14 12 7 5 4 4 4 4 3 2 1 1 1 0 1 1 1 1 1 2
Wind_Direction
85 88 92 93 90 87 84 82 77 75 74 77 83 85 88 89 86 78 68 61 70 78 83 85 87 88 89 90 91 91 90 86 84 83 82 81 82 83 83 83 83 82 80 78 73 70 67 67 68 66 63 62 64 65 64 66 70 71 72 72 71 71 71 72 73 73 72 72 73
82 85 89 93 91 89 85 82 79 76 75 77 86 90 93 93 89 81 72 66 74 82 87 88 90 91 92 91 91 91 91 89 86 84 82 79 79 81 82 83 81 80 80 78 76 74 73 72 73 70 65 59 62 61 60 59 69 75 77 76 76 75 73 73 71 71 72 71 64
82 84 86 88 90 91 89 88 85 82 80 81 85 90 93 93 89 83 78 76 81 86 90 93 94 94 93 92 90 89 90 91 89 87 84 81 80 81 82 82 77 75 74 74 74 75 76 76 79 78 76 70 70 71 72 71 80 84 84 81 82 80 77 73 66 63 62 58 52
87 89 92 93 94 95 96 98 95 89 86 85 86 89 91 93 90 86 83 82 84 87 92 97 98 97 95 94 92 91 90 91 90 89 88 86 83 82 81 80 76 74 72 74 77 78 79 80 82 84 86 89 89 92 97 101 92 86 81 76 73 72 71 67 59 57 57 55 49
95 96 98 99 98 98 98 99 97 93 89 88 89 91 93 96 94 91 87 85 87 91 96 99 100 100 99 98 96 94 92 91 91 90 89 88 86 84 83 82 82 82 82 83 87 90 92 91 91 93 97 103 104 104 101 93 82 76 71 64 63 64 65 62 53 51 51 52 46
105 104 103 101 100 99 96 93 92 91 89 86 90 93 96 99 99 97 95 94 96 98 100 102 102 103 103 102 101 98 96 92 91 91 91 91 89 88 87 88 89 89 91 92 97 102 106 107 104 105 107 107 96 84 77 75 76 75 72 65 58 56 56 52 47 46 49 53 47
105 105 104 101 100 99 97 93 89 87 85 85 89 93 97 100 101 102 103 104 103 104 104 105 106 108 109 108 106 103 101 97 94 92 93 93 93 93 93 93 91 91 92 97 102 106 108 108 104 99 94 87 76 66 64 71 77 79 76 67 55 49 47 40 33 40 51 56 51
100 100 100 100 99 99 98 96 91 87 85 87 91 95 98 100 103 106 107 108 108 108 108 109 112 113 113 112 110 107 105 102 99 96 94 95 97 97 98 99 97 96 96 98 99 97 92 88 86 83 79 74 70 65 65 72 78 79 76 68 56 45 40 34 27 37 53 60 53
98 97 96 96 97 96 95 92 90 89 91 92 96 99 102 104 106 107 109 110 111 112 112 113 115 115 114 112 111 109 107 105 103 102 101 102 103 105 105 105 103 100 95 88 85 81 79 77 76 76 76 77 75 71 70 74 77 77 74 68 59 49 41 36 31 39 52 61 59
100 99 98 98 98 97 93 87 87 90 93 96 99 102 105 106 105 106 109 111 112 113 115 118 118 116 114 112 111 109 108 108 108 109 109 109 110 110 109 107 102 96 87 76 74 75 76 78 78 76 75 77 78 75 72 73 76 75 72 68 65 57 48 36 33 39 50 62 63
100 100 102 104 104 102 97 90 89 90 92 95 96 98 101 104 104 105 107 109 110 113 116 120 120 118 116 113 112 111 111 111 113 114 113 111 110 108 106 102 95 88 81 74 72 74 77 81 82 78 75 73 75 74 73 74 77 76 74 69 68 63 55 38 34 38 50 63 64
98 98 100 102 103 100 97 93 92 91 92 94 95 96 98 101 104 106 107 106 108 111 114 117 118 119 118 117 116 115 115 116 117 116 114 112 110 108 104 98 90 85 79 73 72 75 79 82 84 81 77 72 71 73 75 77 80 80 77 69 67 63 57 43 35 37 48 62 65
96 95 96 98 98 97 95 94 92 93 95 96 98 99 100 102 105 106 107 106 108 108 109 111 113 116 118 119 119 120 121 123 122 120 116 114 112 107 102 95 90 84 79 72 70 74 79 82 85 85 82 76 72 72 74 79 83 84 81 74 69 64 59 46 38 43 55 64 67
98 96 95 96 96 95 94 94 94 97 99 101 101 102 102 102 105 106 107 108 108 108 108 108 110 113 117 120 121 124 126 128 124 118 113 109 105 101 98 95 91 87 81 74 71 73 78 82 84 87 87 83 76 71 70 74 80 84 85 83 79 75 68 53 47 58 69 73 70
106 104 102 100 99 98 97 98 99 102 105 105 106 105 105 105 108 108 109 109 109 109 109 108 109 110 113 116 120 124 127 126 119 112 106 100 95 93 93 94 93 90 85 79 74 73 76 81 84 87 88 86 80 74 70 71 76 81 85 89 92 93 90 79 69 75 81 84 76
116 115 114 109 106 104 103 103 105 108 109 109 109 108 107 108 110 111 112 112 111 111 110 111 112 111 112 114 117 120 120 115 108 103 100 97 94 92 91 93 93 92 89 85 80 76 74 76 80 84 86 87 84 80 76 75 76 79 82 88 96 102 106 105 91 87 86 86 82
123 123 120 118 116 113 110 108 110 112 113 113 112 112 111 112 113 115 116 117 116 115 114 113 113 113 113 113 113 112 108 101 96 95 96 98 98 96 93 90 90 90 91 90 87 82 78 73 75 78 82 85 84 82 80 79 79 80 82 86 89 95 99 96 92 91 87 85 88
125 123 122 122 122 118 114 112 114 115 115 115 115 114 114 114 115 115 116 118 118 118 116 113 111 110 110 109 105 99 94 90 89 90 92 95 96 95 91 86 84 85 89 91 90 88 84 79 78 79 81 82 82 81 80 79 78 78 80 82 81 80 77 72 76 80 86 91 98
127 124 123 125 125 121 117 115 116 116 115 114 113 113 113 113 112 112 112 113 115 116 115 112 107 104 102 100 94 89 86 85 87 89 90 90 90 89 87 83 81 83 87 90 90 89 87 86 86 88 88 87 84 81 79 78 76 74 72 73 71 68 65 62 62 67 77 91 103
128 126 126 127 128 125 120 118 116 113 110 109 108 109 110 110 109 109 108 109 110 111 111 111 107 103 98 93 89 86 84 84 87 89 89 88 88 88 88 87 86 86 88 90 90 91 91 91 93 95 96 95 92 88 84 81 77 71 66 63 60 58 57 57 59 62 68 78 91
129 127 127 129 130 127 122 118 113 108 106 106 106 107 107 106 105 105 105 105 104 104 105 106 107 106 102 97 93 90 88 87 88 90 91 90 90 91 93 94 93 92 92 92 93 94 95 96 97 98 98 97 97 96 95 91 85 76 68 58 52 48 46 48 52 57 61 66 75
129 128 129 130 130 128 124 119 112 108 107 108 108 108 107 104 104 103 103 103 100 99 100 102 105 106 106 104 101 99 96 92 91 91 92 92 93 94 95 97 99 99 99 99 100 99 98 96 95 95 97 97 99 101 103 103 98 91 79 65 54 45 40 40 44 48 52 56 61
130 129 131 132 132 131 126 121 116 114 114 114 113 111 110 107 107 107 107 106 105 104 103 102 103 104 105 104 105 104 103 100 96 93 91 91 92 94 95 98 101 105 108 111 111 108 104 97 92 92 94 98 102 105 108 110 109 105 96 82 66 53 43 39 39 41 42 42 41
131 132 135 136 135 132 128 124 122 121 121 121 120 117 115 113 113 114 114 115 115 114 112 109 106 103 101 100 101 104 107 108 104 99 93 90 92 94 95 97 102 110 118 126 130 127 121 113 106 101 99 101 105 107 109 110 113 113 109 101 85 68 54 43 39 37 36 30 21
134 135 137 138 137 133 129 127 126 126 126 126 124 122 119 118 120 120 121 121 121 119 117 114 110 105 101 98 96 98 103 108 109 106 101 95 94 94 95 97 102 113 132 148 146 141 136 132 129 124 119 113 109 104 100 98 104 108 111 109 101 89 72 52 40 34 32 27 12
137 138 140 140 138 135 132 129 128 128 128 129 127 125 123 122 123 124 124 123 123 120 117 115 113 110 106 100 97 95 96 100 106 108 108 105 101 97 95 97 104 116 152 164 156 152 147 143 138 134 130 122 116 109 102 93 91 95 100 104 104 101 93 75 52 34 23 16 8
139 140 141 142 140 137 133 130 128 129 130 132 130 128 127 126 125 125 125 124 122 119 116 114 113 112 110 104 103 102 101 101 102 106 109 112 111 109 107 105 111 141 177 172 161 158 155 151 144 139 133 125 122 118 114 108 98 93 94 97 100 104 105 106 94 68 32 8 0
141 141 142 143 141 138 134 130 130 132 134 135 134 131 128 127 127 127 126 125 123 119 115 111 110 110 109 107 108 109 110 110 109 108 108 109 112 115 118 120 132 214 200 179 162 157 156 153 148 143 137 130 123 120 119 117 110 104 99 100 103 107 112 121 122 112 71 11 359
142 143 144 147 144 139 135 133 134 135 137 138 136 134 131 130 130 130 129 128 126 124 121 118 115 112 111 113 113 113 112 114 115 113 111 108 108 111 119 132 173 220 204 182 160 153 151 150 147 143 139 133 125 119 119 121 118 115 111 111 114 116 120 127 127 121 85 25 12
145 146 148 150 146 142 138 137 136 137 138 140 139 137 135 134 134 134 134 133 130 128 124 120 121 121 121 123 120 116 115 117 118 117 116 117 120 124 132 152 212 240 223 193 159 149 146 146 144 141 137 133 125 120 120 123 122 124 126 129 127 127 128 130 128 121 94 53 35
147 149 151 152 148 144 141 138 137 138 140 143 143 142 141 139 139 139 137 134 129 124 119 116 120 122 124 125 121 120 122 123 119 119 122 128 135 141 154 193 242 257 243 215 163 148 144 144 142 140 137 134 129 124 123 124 123 126 131 134 132 131 130 129 129 127 118 101 83
149 150 152 155 151 147 143 141 140 141 143 145 147 147 146 144 142 140 136 131 127 124 124 124 125 125 125 121 119 121 124 125 125 127 130 133 140 147 166 211 246 258 249 230 169 151 144 145 143 142 140 138 131 125 121 118 115 113 113 113 114 115 119 121 125 132 137 136 128
150 152 155 158 154 149 145 144 144 145 146 148 150 150 149 145 141 136 133 130 130 132 136 139 139 139 137 134 131 130 130 129 129 128 127 128 132 140 160 212 246 259 253 236 173 153 145 147 146 144 142 138 129 120 113 108 102 96 91 89 88 91 97 106 120 137 152 157 149
152 154 157 161 156 150 147 146 146 147 148 150 152 152 150 146 143 140 138 136 137 139 141 143 145 145 143 139 137 137 136 131 122 118 118 120 124 135 161 214 251 264 254 232 173 153 147 149 147 145 142 135 125 115 109 103 96 90 86 83 76 72 74 87 110 134 152 161 154
154 156 159 163 158 153 149 148 148 148 150 152 154 154 153 151 148 146 145 144 142 140 137 139 136 129 120 115 125 132 134 132 124 121 121 122 126 140 165 210 255 266 251 215 167 153 148 149 146 142 137 128 119 111 108 105 100 94 90 86 74 62 52 55 72 106 135 144 144
158 159 161 163 160 156 152 151 150 150 152 155 155 156 156 155 152 150 148 148 144 142 140 139 135 127 119 114 118 128 136 141 138 135 134 132 134 147 167 205 251 267 253 207 162 153 150 148 144 139 132 121 112 105 104 103 100 96 91 87 76 57 35 27 38 60 92 121 139
160 161 162 164 162 159 156 154 153 153 155 157 157 157 158 157 154 154 153 151 147 147 149 148 148 147 146 144 142 143 145 146 143 142 144 145 146 153 168 198 241 270 269 238 168 156 150 148 144 139 132 120 115 109 104 100 96 91 88 86 75 44 12 4 18 26 40 106 190
162 162 163 165 164 162 160 158 157 157 157 157 157 157 157 157 157 159 160 157 152 153 156 157 160 161 158 150 141 135 133 142 143 145 150 159 159 158 163 185 229 271 288 290 185 161 151 150 146 143 138 130 128 123 116 108 100 94 89 85 64 19 352 349 1 1 339 282 242
164 164 165 166 166 165 164 163 161 160 158 156 155 155 156 159 161 166 166 157 150 152 157 161 164 162 155 144 134 128 126 136 142 149 156 169 175 168 165 173 215 262 292 296 205 166 152 152 151 149 145 138 136 133 126 117 110 103 95 82 55 5 344 343 353 343 305 283 267
165 165 166 167 167 167 167 166 164 161 159 156 155 156 158 162 164 166 161 140 138 143 152 156 154 151 147 146 139 136 137 142 150 160 167 179 192 185 175 164 205 253 285 293 222 171 155 156 155 153 150 139 139 135 128 121 116 113 108 88 86 352 325 326 333 318 289 283 285
166 167 167 168 168 169 169 167 165 162 159 157 156 157 159 163 163 158 147 126 134 140 143 141 137 140 146 152 144 143 149 161 182 214 214 190 214 198 181 159 193 240 281 297 251 176 161 160 159 157 153 143 139 133 126 121 124 133 152 183 175 184 234 310 322 320 306 293 298